User: anonymous   Login
Location: Oshawa
(43.9000°N, 78.8670°W)
Time: 18:41:38
(UTC-05:00)
Language:

Iridium 54 - Orbit

View from above orbital plane
View from above orbital plane
View from above satellite
View from above satellite

Ground track
Ground track

The orbit data is extracted from the following two-line orbital elements,

1 25171U 98010C   14354.51568810  .00000489  00000-0  16769-3 0   393
2 25171 086.3952 010.6169 0002172 108.4507 251.6925 14.34223500881541
Epoch (UTC): 20 December 2014 12:22:35
Eccentricity: 0.0002172
inclination: 86.3952°
perigee height: 776 km
apogee height: 779 km
right ascension of ascending node: 10.6169°
argument of perigee: 108.4507°
revolutions per day: 14.34223500
mean anomaly at epoch: 251.6925°
orbit number at epoch: 88154

The dashed part of the orbit path shows where the satellite is in the earth's shadow,  

DLR